Location: Hawks Ness
(60.2333°N, 1.1667°W)
Time: 03:34:55
(UTC+00:00)

NOSS 2-2 (D) - Pass Details

Date: 22 October 2019
Orbit: 490 x 1719 km, 63.3° (Epoch: 09 November)

Event Time Altitude Azimuth Distance (km) Brightness Sun altitude
Exits shadow 05:33:42 16° 259° (W) 1,531 5.0 -11.4°
Maximum altitude 05:36:58 72° 343° (NNW) 686 3.7 -11.0°
Drops below altitude 10° 05:42:15 10° 68° (ENE) 2,389 7.7 -10.4°
Sets 05:45:06 0° 70° (ENE) 3,524 8.8 -10.0°
